Left ArrowRight Arrow

33.98154, -81.23621

Hourly Observations for June 19, 2024

Temp ( °F °C ) Dew Point ( °F °C ) Humidity (%) Winds ( mph kmh ) Pressure ( in mb ) Visibility ( mi km ) Precip ( " mm )
12:56 am 00:56 Mostly Clear 74 23.3 63 17.2 69 69 E 5 7 30.20 1023 10 16 0.00 0.00
1:56 am 01:56 Partly Cloudy 72 22.2 63 17.2 73 73 ENE 6 9 30.20 1023 10 16 0.00 0.00
2:56 am 02:56 Partly Cloudy 72 22.2 64 17.8 76 76 E 3 6 30.19 1023 10 16 0.00 0.00
3:56 am 03:56 Partly Cloudy 71 21.7 64 17.8 79 79 NE 3 6 30.20 1023 10 16 0.00 0.00
4:56 am 04:56 Partly Cloudy 71 21.7 64 17.8 79 79 ENE 5 7 30.20 1023 10 16 0.00 0.00
5:56 am 05:56 Mostly Cloudy 70 21.1 64 17.8 81 81 NE 5 7 30.21 1023 10 16 0.00 0.00
6:56 am 06:56 Mostly Cloudy 70 21.1 64 17.8 81 81 ENE 5 7 30.23 1024 10 16 0.00 0.00
7:56 am 07:56 Mostly Cloudy 74 23.3 64 17.8 71 71 NE 6 9 30.25 1024 10 16 0.00 0.00
8:56 am 08:56 Partly Cloudy 77 25 66 18.9 69 69 E 8 13 30.27 1025 10 16 0.00 0.00
9:56 am 09:56 Partly Cloudy 82 27.8 66 18.9 58 58 E 10 17 30.27 1025 10 16 0.00 0.00
10:56 am 10:56 Partly Cloudy 83 28.3 64 17.8 53 53 E 8 13 30.27 1025 10 16 0.00 0.00
11:56 am 11:56 Partly Cloudy 85 29.4 63 17.2 48 48 ESE 10 17 30.27 1025 10 16 0.00 0.00
12:56 pm 12:56 Partly Cloudy 87 30.6 64 17.8 46 46 ESE 10 17 30.26 1025 10 16 0.00 0.00
1:56 pm 13:56 Partly Cloudy 89 31.7 63 17.2 42 42 E 12 19 30.25 1024 10 16 0.00 0.00
2:56 pm 14:56 Partly Cloudy 90 32.2 65 18.3 44 44 SE 12 19 30.23 1024 10 16 0.00 0.00
3:56 pm 15:56 Partly Cloudy 90 32.2 63 17.2 41 41 ESE 9 15 30.21 1023 10 16 0.00 0.00
4:56 pm 16:56 Partly Cloudy 91 32.8 62 16.7 38 38 ESE 9 15 30.20 1023 10 16 0.00 0.00
5:56 pm 17:56 Partly Cloudy 91 32.8 61 16.1 37 37 E 9 15 30.19 1022 10 16 0.00 0.00
6:56 pm 18:56 Partly Cloudy 89 31.7 61 16.1 39 39 E 9 15 30.19 1023 10 16 0.00 0.00
7:56 pm 19:56 Partly Cloudy 87 30.6 63 17.2 45 45 ESE 12 19 30.21 1023 10 16 0.00 0.00
8:56 pm 20:56 Partly Cloudy 83 28.3 63 17.2 51 51 SE 7 11 30.22 1023 10 16 0.00 0.00
9:56 pm 21:56 Partly Cloudy 80 26.7 62 16.7 54 54 E 6 9 30.23 1024 10 16 0.00 0.00
10:56 pm 22:56 Partly Cloudy 78 25.6 63 17.2 60 60 E 6 9 30.24 1024 10 16 0.00 0.00
11:56 pm 23:56 Partly Cloudy 76 24.4 64 17.8 67 67 ESE 8 13 30.25 1025 10 16 0.00 0.00

Powered by Vaisala Xweather